THORAD AGENA D DEB

Satellite information

Favourite Embed

Satellite Type and Status

DEBRISIN ORBIT

Key statistics

Satellite THORAD AGENA D DEB at a glance.

Uptime

20432

Days in orbit

Revolutions

≈ 14.3

Per day

Orbit

LEO

Low Earth Orbit

Inclination

70.1

Latest

Satellite identification and parameters

Extended collection of information and parameters for THORAD AGENA D DEB.

Object identification

Identified? True

Debris? True

Object name: THORAD AGENA D DEB

International designator: 1969-082BU

Object number (NORAD): 4205

Object ID (CCSDS): 4205

Country: UNITED STATES OF AMERICA (US)

Current information (Y/N): Y

RCS size: SMALL

Orbital parameters

Period: 100.778 minutes

Inclination: 70.0612 deg

SMA: 7173.623 km

Apoapsis: 842.296 km

Periapsis: 748.679 km

RAAN: 38.8458 deg

Eccentricy: 0.00652511

Argument of periapsis: 196.7894 deg

Mean anomaly: 163.1071 deg

Mean motion: 14.28877424 rev/day

Mean motion (dot): 0.00000816 rev/day2

B* drag term: 0.00033787245 1/REarth

Two-line elements (TLE)

Creation date: Sept. 8, 2025, 3:16 a.m.

Reference frame: TEME

Reference center: EARTH

Epoch: Sept. 7, 2025, 4:16 p.m. UTC

TLE line 0: 0 THORAD AGENA D DEB

TLE line 1: 1 04205U 69082BU 25250.67830194 .00000816 00000-0 33787-3 0 9994

TLE line 2: 2 04205 70.0612 38.8458 0065251 196.7894 163.1071 14.28877424 61146

Live tracking on map

Real-time ground track for satellite THORAD AGENA D DEB.

In-orbit conjunctions

A list of the most updated potential collisions computed for object THORAD AGENA D DEB.

Target Orbit TCA Probability of collision Miss distance Type
COSMOS 1867 COOLANT LEO 2025-05-13 11:24:26 0.0001436302 175.0 (m) DEBRIS
SL-8 R/B LEO 2024-11-04 06:53:34 0.001190563 114.0 (m) ROCKET BODY

Associated space launch

Poppy was the follow-on ELINT system, which succeeded the Grab ELINT satellite system.

THORAD AGENA D DEB was lifted into orbit during the mission ‘Thorad SLV-2G Agena D | Poppy 8A,B,C,D’, on board a Thorad SLV-2G Agena D space rocket.

The launch took place on Sept. 30, 1969, 1:40 p.m. from Space Launch Complex 1W.

For more information about the launch, click the button.

Launch to space Thorad SLV-2G Agena D | Poppy 8A,B,C,D
Thorad SLV-2G Agena D | Poppy 8A,B,C,D

Agency: N/A

Status: Launch Successful

Launch date: Sept. 30, 1969, 1:40 p.m. UTC

Rocket: Thorad SLV-2G Agena D

Launch pad: Space Launch Complex 1W

Location: Vandenberg SFB, CA, USA

...

Latest news about this satellite

There are no fresh news available about this satellite. Check back as we update our databases every day.


Newsletter sign-up

Weekly statistics, charts and insights to help you stay on top of the space industry.